Regional Weather Roundup
Issued by NWS

Home | Current Version | Previous Version | Text Only | Print | Product List | Glossary On
Versions: 1 2 3 4 5 6 7 8 9 10 11 12 13 14 15 16 17 18 19 20 21 22 23 24 25 26 27 28 29 30 31 32 33 34 35 36 37 38 39 40 41 42 43 44 45 46 47 48 49 50
000
ASUS44 KLUB 241210
RWRLUB
WEST TEXAS WEATHER ROUNDUP
NATIONAL WEATHER SERVICE LUBBOCK TX
700 AM CDT THU MAY 24 2018

NOTE: "FAIR" INDICATES FEW OR NO CLOUDS BELOW 12,000 FEET WITH NO
SIGNIFICANT WEATHER AND/OR OBSTRUCTIONS TO VISIBILITY.

TXZ004-006>008-010-012-014-016-OKZ002-241300-
TEXAS PANHANDLE/OKLAHOMA PANHANDLE

CITY           SKY/WX    TMP DP  RH WIND       PRES   REMARKS
AMARILLO       MOCLDY    58  57  97 SE10      30.12S
BORGER         CLOUDY    63  57  81 SE7       30.10R
CANADIAN       MOCLDY    63  61  94 CALM      30.10R
DALHART        PTCLDY    54  54 100 W7        30.15S
DUMAS          PTCLDY    56  53  90 SE6       30.12S
GUYMON         CLOUDY    60  57  89 S14       30.06F
HEREFORD       CLEAR     59  56  91 SE7       30.14S
PAMPA          CLOUDY    60  58  94 SE8       30.12R
PERRYTON       CLOUDY    64  58  81 S14       30.06F
$$

TXZ026-029-035-045-048-241300-
SOUTHERN PANHANDLE/SOUTH PLAINS/ROLLING PLAINS

CITY           SKY/WX    TMP DP  RH WIND       PRES   REMARKS
CHILDRESS      TSTM      66  65  96 NE8       30.11R
SEMINOLE       CLEAR     60  57  90 NE3       30.12R
LUBBOCK        PTCLDY    64  59  83 E10       30.13R
PLAINVIEW      CLEAR     61  58  92 E9        30.13R
SNYDER         CLEAR     68  63  83 SE6       30.10R
$$

TXZ052-054-060>062-072-078-127-140-154-169-241300-
PERMIAN BASIN/CONCHO VALLEY/BIG COUNTRY/EDWARDS PLATEAU

CITY           SKY/WX    TMP DP  RH WIND       PRES   REMARKS
ABILENE        CLEAR     66  65  96 SE7       30.08R
BIG SPRING     CLEAR     68  63  83 S7        30.11R
BRADY          CLOUDY    70  66  88 S5        30.09R
BROWNWOOD      MOCLDY    68  68 100 CALM      30.08R
JUNCTION       CLOUDY    73  67  81 SE8       30.08R
MIDLAND        CLEAR     67  60  78 E3        30.09R
ODESSA         CLEAR     64  60  87 NE7       30.10R
SAN ANGELO     CLOUDY    72  67  84 VRB6      30.07R
SONORA         CLEAR     72  66  83 S8        30.11R
SWEETWATER     CLEAR     69  67  94 SE7       30.12R
WINK             N/A    N/A N/A N/A MISG        N/A
$$

TXZ055-058-074-075-080-082-241300-
FAR WEST/SOUTHWEST MOUNTAINS/TRANS PECOS

CITY           SKY/WX    TMP DP  RH WIND       PRES   REMARKS
ALPINE         CLEAR     62  55  77 SW10      30.19S
DRYDEN           N/A     69  66  90 NE6       30.03R
EL PASO        CLEAR     69  49  48 S3        30.09R
FORT STOCKTON  CLEAR     62  57  83 CALM      30.07R
GUADALUPE PASS CLEAR     62  50  64 W15       30.20R
MARFA          CLEAR     54  52  93 MISG      30.18S
PECOS          CLEAR     58  54  88 W5        30.07R
PRESIDIO       FAIR      72  58  61 N7        30.06S
$$

TXZ014-016-019-021>030-083-241300
TEXAS TECH WEST TEXAS MESONET/TEXAS PANHANDLE/NORTHERN SOUTH PLAINS

CITY           SKY/WX    TMP DP  RH WIND       PRES   REMARKS
ABERNATHY 5ENE   N/A     63  59  88 E9        30.16R
AMARILLO 9NNE    N/A     59  59 100 S9        30.12S
AMARILLO 7SSE    N/A     57  56  98 SE7       30.14S
AMHERST 1NE      N/A     60  57  91 E9        30.16R
BOOTLEG 11WNW    N/A     54  51  90 SE8       30.20R
CANADIAN 6E      N/A     61  60  99 E3        30.10R
CAPROCK CYN SP   N/A     64  62  92 S3        30.14R
CHILDRESS 2NNE HVY RAIN  64  61  89 NE14      30.11S
CLARENDON 2WSW   N/A     64  57  78 SE5       30.12R
CLAUDE 12SW      N/A     58  58  99 SE7       30.15R
DIMMITT 2NE      N/A     58  55  91 SE7       30.16R
FLOYDADA 2NNE    N/A     62  58  88 E6        30.14R
FRIONA 2NE       N/A     56  53  90 E3        30.17R
GOODLETT 3W      N/A     68  60  74 N16G23    30.09S
HART 3N          N/A     59  57  94 E9        30.16R
HEREFORD 2NW     N/A     58  52  80 SE2       30.17R
MCLEAN 1E        N/A     67  54  63 W13       30.09R
MEMPHIS 1NE    LGT RAIN  64  61  89 E12       30.10R
MULESHOE 2SSW    N/A     55  53  93 E5        30.16R
OLTON 6S         N/A     59  57  91 E7        30.16R
PALO DURO SP     N/A     59  57  91 S5        30.15R
PAMPA 2E         N/A     58  57  97 E7        30.13R
PLAINVIEW 1S     N/A     62  60  91 E5        30.15R
SILVERTON 7ESE   N/A     62  59  90 E9        30.13R
TULIA 2ENE       N/A     59  59  98 SE8       30.16R
TURKEY 2WSW      N/A     65  62  91 E9        30.12R
UMBARGER 3NNE    N/A     58  55  91 SE8       30.15R
$$

TXZ033>036-039>041-045>048-241300
TEXAS TECH WEST TEXAS MESONET/SOUTH PLAINS

CITY           SKY/WX    TMP DP  RH WIND       PRES   REMARKS
AIKEN 3WSW       N/A     62  60  91 E10       30.16R
ANDREWS 2NE      N/A     63  59  87 E5        30.13R
ANTON 6SSW       N/A     60  57  88 E7        30.15R
BROWNFIELD 2S    N/A     63  57  81 E8        30.15R
DENVR CTY 7WNW   N/A     58  53  83 NE5       30.15R
GAIL 2ESE        N/A     65  58  80 NE2       30.11R
LAMESA 2SE       N/A     63  59  86 E5        30.12R
LUBBOCK 3WNW     N/A     65  59  81 E8        30.15R
MORTON 1ENE      N/A     59  54  84 E8        30.16R
ODONNELL 1N      N/A     63  56  79 E6        30.13R
PLAINS 3N        N/A     59  55  84 NE10      30.16R
RALLS 1SE        N/A     64  57  79 NE8       30.15S
REESE CENTER     N/A     62  57  84 E9        30.15R
SEAGRAVES 1SW    N/A     61  58  89 NE5       30.14R
SEMINOLE 2NNE    N/A     59  56  89 NE6       30.13R
SLATON 2NE       N/A     66  55  66 NE5       30.15R
SNYDER 3E        N/A     67  63  85 SE5       30.11R
SUNDOWN 8SW      N/A     58  54  86 NE8       30.16R
TAHOKA 3NNE      N/A     62  56  79 NE6       30.14R
WOLFFORTH 6SSW   N/A     62  56  80 NE8       30.15R
$$

TXZ031-032-036>038-042>044-241300-
TEXAS TECH WEST TEXAS MESONET/ROLLING PLAINS

CITY           SKY/WX    TMP DP  RH WIND       PRES   REMARKS
ASPERMONT 3NE    N/A     70  64  82 S6        30.09R
FLUVANNA 3WNW    N/A     66  58  76 E7        30.12R
GRAHAM 5SSW      N/A     67  55  64 NE8       30.13R
GUTHRIE 10WSW    N/A     69  62  79 N8        30.10R
HASKELL 1NW      N/A     70  63  76 S7        30.08R
JAYTON 1SSE      N/A     69  61  76 SE5       30.09R
KNOX CITY 3NW    N/A     69  65  85 S1        30.08R
LK A HENRY 1NW   N/A     66  60  80 S6        30.11R
NORTHFIELD 1S    N/A     65  61  88 NE12G18   30.11R
ODELL 4ENE       N/A     68  63  86 N17       30.11R
PADUCAH 10SW     N/A     69  63  81 NE12      30.11R
POST 1NE         N/A     65  56  74 NW3       30.12R
RRING SPRGS 3N   N/A     64  62  92 NE10      30.14R
SEYMOUR 3NW      N/A     69  65  86 SE3       30.08R
SPUR 1W          N/A     69  58  68 N5        30.11R
WEINERT 2NNE     N/A     71  65  81 SE7       30.08R
WHITE RVR 6NE    N/A     67  58  73 N10       30.12R
$$

TXZ052-054-060>062-072-078-127-140-154-169-241300-
TEXAS TECH WEST TEXAS MESONET/PERMIAN BASIN/
CONCHO VALLEY/BIG COUNTRY/EDWARDS PLATEAU

CITY           SKY/WX    TMP DP  RH WIND       PRES   REMARKS
COYANOSA 2N      N/A     62  53  71 E7        30.07R
MERTZON 3NNE     N/A     69  66  90 S5        30.10R
SAN ANGELO 7NW   N/A     68  64  85 E5        30.09R
STRLNG CT 4WSW   N/A     65  62  90 E2        30.11R
ST LAWRNCE 5SW   N/A     67  61  81 SE6       30.10R
SWEETWATR 11SW   N/A     68  66  95 SE6       30.12R
WALL 1E          N/A     72  67  84 SE2       30.10R
$$

TXZ055-058-074-075-080-082-241300-
TEXAS TECH WEST TEXAS MESONET/FAR WEST/SOUTHWEST MOUNTAINS/TRANS PECOS

CITY           SKY/WX    TMP DP  RH WIND       PRES   REMARKS
PRSMN GAP BBNP   N/A     68  60  75 CALM      30.08R
GUADLPE MTN NP   N/A     63  49  58 SW9       30.22R
$$




USA.gov is the U.S. government's official web portal to all federal, state and local government web resources and services.